Location: Hac?musa Deresi
(39.1694°N, 32.2508°E)
Time: 23:02:49
(UTC+00:00)

SeaSat 1 - Pass Details

Date: 22 April 2026
Orbit: 736 x 740 km, 108.0° (Epoch: 9 May)

Event Time Altitude Azimuth Distance (km) Brightness Sun altitude
Exits shadow 20:17:07 21° 25° (NNE) 1,624 4.5 -34.1°
Drops below altitude 10° 20:19:28 10° 360° (N) 2,255 5.6 -34.3°
Sets 20:22:04 0° 347° (NNW) 3,182 6.7 -34.5°
